Location: Unspecified
(0.0000°N, 0.0000°E)
Time: 16:37:15
(UTC+00:00)

Vanguard 3 - All Passes

Search period start: 28 August 2016 00:00
Search period end: 07 September 2016 00:00
Orbit: 510 x 3265 km, 33.3° (Epoch: 26 August)

Date Brightness Start Highest point End Pass type
(mag) Time Alt. Az. Time Alt. Az. Time Alt. Az.
28 Aug - 02:10:23 10° SSW 02:22:30 19° S 02:34:11 10° SE visible
28 Aug - 04:27:56 10° SSW 04:44:07 32° SSE 04:55:54 10° E visible
28 Aug - 06:44:44 10° SW 07:01:22 73° SSE 07:10:41 10° ENE daylight
28 Aug - 09:04:26 10° W 09:14:29 32° NW 09:20:42 10° NNE daylight
28 Aug - 18:06:05 10° NNW 18:11:22 38° NE 18:20:08 10° ESE daylight
28 Aug - 20:16:37 10° WNW 20:24:14 53° SSW 20:37:51 10° SE visible
28 Aug - 22:32:05 10° WSW 22:41:28 24° SSW 22:54:22 10° SSE visible
29 Aug - 00:52:52 10° SW 01:03:18 17° S 01:14:37 10° SE visible
29 Aug - 03:11:29 10° SSW 03:26:21 25° SSE 03:38:58 10° ESE visible
29 Aug - 05:27:53 10° SW 05:45:39 51° SSE 05:56:50 10° ENE visible
29 Aug - 07:45:59 10° WSW 08:00:41 61° NW 08:08:52 10° NE daylight
29 Aug - 10:11:01 10° NW 10:12:58 11° NW 10:14:45 10° NNW daylight
29 Aug - 16:55:34 10° N 16:58:20 14° NE 17:01:44 10° ENE daylight
29 Aug - 19:03:35 10° WNW 19:09:48 85° SW 19:21:22 10° SE visible
29 Aug - 21:16:40 10° W 21:24:53 30° SSW 21:37:39 10° SSE visible
29 Aug - 23:35:23 10° SW 23:44:30 17° S 23:55:30 10° SSE visible
30 Aug - 01:55:04 10° SSW 02:07:42 20° SSE 02:20:05 10° SE visible
30 Aug - 04:11:26 10° SW 04:28:53 38° SSE 04:41:43 10° E visible
30 Aug - 06:28:21 10° SW 06:46:00 85° SE 06:56:05 10° ENE daylight
30 Aug - 08:49:06 10° W 08:59:16 28° NW 09:05:48 10° NNE daylight
30 Aug - 17:51:22 10° NNW 17:56:20 47° NE 18:04:44 10° ESE daylight
30 Aug - 20:02:28 10° W 20:09:24 42° SSW 20:21:22 10° SE visible
30 Aug - 22:18:36 10° SW 22:26:45 20° SSW 22:37:37 10° SSE visible
31 Aug - 00:38:35 10° SSW 00:48:38 17° S 00:59:41 10° SE visible
31 Aug - 02:55:21 10° SSW 03:11:12 28° SSE 03:24:55 10° ESE visible
31 Aug - 05:11:22 10° SW 05:30:13 60° SSE 05:42:19 10° ENE visible
31 Aug - 07:30:01 10° WSW 07:45:16 53° NW 07:54:03 10° NE daylight
31 Aug - 16:40:20 10° N 16:43:25 17° NE 16:47:24 10° E daylight
31 Aug - 18:49:12 10° WNW 18:54:56 67° SSW 19:05:19 10° SE visible
31 Aug - 21:02:58 10° WSW 21:10:11 24° SSW 21:20:50 10° SSE visible
31 Aug - 23:21:56 10° SSW 23:29:54 16° S 23:39:23 10° SSE night (unlit)
01 Sep - 01:39:36 10° SSW 01:52:46 22° SSE 02:05:57 10° ESE visible
01 Sep - 03:55:01 10° SW 04:13:28 44° SSE 04:27:20 10° E visible
01 Sep - 06:12:01 10° SW 06:30:27 84° NW 06:41:20 10° NE daylight
01 Sep - 08:33:51 10° W 08:44:01 25° NW 08:50:48 10° N daylight
01 Sep - 17:36:44 10° NW 17:41:25 60° NE 17:49:19 10° ESE daylight
01 Sep - 19:48:28 10° W 19:54:42 32° SSW 20:04:50 10° SE visible
01 Sep - 22:05:26 10° SW 22:12:10 16° S 22:20:45 10° SSE visible
02 Sep - 00:24:04 10° SSW 00:33:56 17° S 00:44:57 10° SE visible
02 Sep - 02:39:15 10° SSW 02:55:53 32° SSE 03:10:38 10° E visible
02 Sep - 04:54:56 10° SW 05:14:36 69° SE 05:27:38 10° ENE visible
02 Sep - 07:14:07 10° WSW 07:29:44 47° NW 07:39:09 10° NNE daylight
02 Sep - 16:25:15 10° N 16:28:32 21° NE 16:32:53 10° E daylight
02 Sep - 18:34:57 10° WNW 18:40:11 50° SSW 18:49:16 10° SE visible
02 Sep - 20:49:35 10° SW 20:55:36 19° SSW 21:03:54 10° SSE visible
02 Sep - 23:08:31 10° SSW 23:15:23 14° S 23:23:25 10° SSE night (unlit)
03 Sep - 01:24:03 10° SSW 01:37:41 24° SSE 01:51:43 10° ESE visible
03 Sep - 03:38:42 10° SW 03:57:50 50° SSE 04:12:43 10° ENE visible
03 Sep - 05:55:47 10° WSW 06:14:45 75° NW 06:26:27 10° NE daylight
03 Sep - 08:18:43 10° W 08:28:46 22° NW 08:35:45 10° N daylight
03 Sep - 17:22:12 10° NW 17:26:36 81° NE 17:33:52 10° ESE daylight
03 Sep - 19:34:44 10° WSW 19:40:08 24° SSW 19:48:14 10° SSE visible
03 Sep - 21:52:42 10° SSW 21:57:41 13° S 22:03:40 10° SSE visible
04 Sep - 00:09:20 10° SSW 00:19:11 17° SSE 00:30:22 10° SE visible
04 Sep - 02:23:14 10° SSW 02:40:22 36° SSE 02:56:09 10° E visible
04 Sep - 04:38:37 10° SW 04:58:48 78° SE 05:12:47 10° ENE visible
04 Sep - 06:58:20 10° WSW 07:14:09 42° NW 07:24:09 10° NNE daylight
04 Sep - 16:10:17 10° NNW 16:13:42 28° NE 16:18:15 10° E daylight
04 Sep - 18:20:51 10° W 18:25:34 36° SSW 18:33:10 10° SE visible
04 Sep - 20:36:44 10° SW 20:41:08 14° S 20:46:40 10° SSE visible
04 Sep - 22:55:01 10° SSW 23:00:52 13° S 23:07:37 10° SSE night (unlit)
05 Sep - 01:08:28 10° SSW 01:22:27 26° SSE 01:37:20 10° ESE visible
05 Sep - 03:22:29 10° SW 03:42:01 57° SSE 03:57:55 10° ENE visible
05 Sep - 05:39:41 10° WSW 05:58:55 66° NW 06:11:27 10° NE daylight
05 Sep - 08:03:43 10° W 08:13:32 20° NW 08:20:39 10° N daylight
05 Sep - 17:07:45 10° WNW 17:11:54 72° SW 17:18:23 10° SE daylight
05 Sep - 19:21:23 10° WSW 19:25:39 17° SSW 19:31:26 10° SSE visible
05 Sep - 21:41:03 10° S 21:43:18 11° S 21:45:43 10° SSE visible
05 Sep - 23:54:24 10° SSW 00:04:20 18° SSE 00:15:51 10° SE visible
06 Sep - 02:07:16 10° SSW 02:24:41 41° SSE 02:41:26 10° E visible
06 Sep - 04:22:26 10° SW 04:42:51 87° SE 04:57:45 10° NE visible
06 Sep - 06:42:41 10° W 06:58:32 37° NW 07:09:04 10° NNE daylight
06 Sep - 15:55:25 10° NNW 15:58:56 38° NE 16:03:30 10° ESE daylight
06 Sep - 18:06:59 10° W 18:11:03 25° SSW 18:17:01 10° SSE daylight
06 Sep - 20:25:59 10° S 20:26:46 10° S 20:27:34 10° S visible
06 Sep - 22:41:19 10° S 22:46:21 12° SSE 22:52:05 10° SSE night (unlit)
